Time,TemperatureF,DewpointF,PressureIn,WindDirection,WindDirectionDegrees,WindSpeedMPH,WindSpeedGustMPH,Humidity,HourlyPrecipIn,Conditions,Clouds,dailyrainin,SoftwareType,DateUTC
2013-03-26 00:00:00,50.9,-99.9,29.92,West,259,0.0,0.0,-999,-99.99,,,-99.99,,2013-03-26 07:00:00,
2013-03-26 00:10:00,50.9,-99.9,29.92,West,259,0.0,0.0,-999,-99.99,,,-99.99,,2013-03-26 07:10:00,
2013-03-26 00:15:00,51.0,-99.9,29.92,West,259,0.0,0.0,-999,-99.99,,,-99.99,,2013-03-26 07:15:00,
2013-03-26 00:20:00,50.9,-99.9,29.92,West,259,0.0,0.0,-999,-99.99,,,-99.99,,2013-03-26 07:20:00,
2013-03-26 00:30:00,50.3,-99.9,29.91,SE,139,0.0,0.0,-999,-99.99,,,-99.99,,2013-03-26 07:30:00,
2013-03-26 00:40:00,50.1,-99.9,29.92,West,261,0.0,0.0,-999,-99.99,,,-99.99,,2013-03-26 07:40:00,
2013-03-26 00:50:00,50.7,-99.9,29.92,West,261,0.0,0.0,-999,-99.99,,,-99.99,,2013-03-26 07:50:00,
2013-03-26 01:00:00,49.9,-99.9,29.92,West,261,0.0,0.0,-999,-99.99,,,-99.99,,2013-03-26 08:00:00,
2013-03-26 01:05:00,50.6,-99.9,29.92,West,261,0.0,0.0,-999,-99.99,,,-99.99,,2013-03-26 08:05:00,
2013-03-26 01:10:00,50.4,-99.9,29.92,ENE,73,0.0,0.0,-999,-99.99,,,-99.99,,2013-03-26 08:10:00,
2013-03-26 01:20:00,50.0,-99.9,29.91,SW,227,0.0,0.0,-999,-99.99,,,-99.99,,2013-03-26 08:20:00,
2013-03-26 01:30:00,50.2,-99.9,29.91,SW,227,0.0,0.0,-999,-99.99,,,-99.99,,2013-03-26 08:30:00,
2013-03-26 01:40:00,50.0,-99.9,29.91,East,87,0.0,0.0,-999,-99.99,,,-99.99,,2013-03-26 08:40:00,
2013-03-26 01:45:00,49.9,-99.9,29.91,East,87,0.0,0.0,-999,-99.99,,,-99.99,,2013-03-26 08:45:00,
2013-03-26 01:50:00,50.2,-99.9,29.91,East,87,0.0,0.0,-999,-99.99,,,-99.99,,2013-03-26 08:50:00,
2013-03-26 01:55:00,50.1,-99.9,29.91,East,87,0.0,0.0,-999,-99.99,,,-99.99,,2013-03-26 08:55:00,
2013-03-26 02:00:00,50.2,-99.9,29.91,East,87,0.0,0.0,-999,-99.99,,,-99.99,,2013-03-26 09:00:00,
2013-03-26 02:05:00,50.1,-99.9,29.91,West,271,11.1,12.7,-999,-99.99,,,-99.99,,2013-03-26 09:05:00,
2013-03-26 02:10:00,50.1,-99.9,29.91,WSW,255,0.0,0.0,-999,-99.99,,,-99.99,,2013-03-26 09:10:00,
2013-03-26 02:15:00,50.0,-99.9,29.91,WSW,255,0.0,0.0,-999,-99.99,,,-99.99,,2013-03-26 09:15:00,
2013-03-26 02:20:00,49.8,-99.9,29.91,ENE,74,0.0,0.0,-999,-99.99,,,-99.99,,2013-03-26 09:20:00,
2013-03-26 02:25:00,49.9,-99.9,29.91,ENE,74,0.0,0.0,-999,-99.99,,,-99.99,,2013-03-26 09:25:00,
2013-03-26 02:30:00,49.8,-99.9,29.91,ENE,74,0.0,0.0,-999,-99.99,,,-99.99,,2013-03-26 09:30:00,
2013-03-26 02:35:00,49.9,-99.9,29.91,ENE,74,0.0,0.0,-999,-99.99,,,-99.99,,2013-03-26 09:35:00,
2013-03-26 02:40:00,49.7,-99.9,29.90,ENE,74,0.0,0.0,-999,-99.99,,,-99.99,,2013-03-26 09:40:00,
2013-03-26 02:45:00,49.8,-99.9,29.90,ENE,74,0.0,0.0,-999,-99.99,,,-99.99,,2013-03-26 09:45:00,
2013-03-26 02:50:00,49.7,-99.9,29.90,ENE,74,0.0,0.0,-999,-99.99,,,-99.99,,2013-03-26 09:50:00,
2013-03-26 03:00:00,49.7,-99.9,29.90,ENE,74,0.0,0.0,-999,-99.99,,,-99.99,,2013-03-26 10:00:00,
2013-03-26 03:05:00,49.9,-99.9,29.90,ENE,74,0.0,0.0,-999,-99.99,,,-99.99,,2013-03-26 10:05:00,
2013-03-26 03:10:00,49.9,-99.9,29.90,ENE,74,0.0,0.0,-999,-99.99,,,-99.99,,2013-03-26 10:10:00,
2013-03-26 03:15:00,49.8,-99.9,29.90,ENE,74,0.0,0.0,-999,-99.99,,,-99.99,,2013-03-26 10:15:00,
2013-03-26 03:20:00,49.6,-99.9,29.90,ENE,74,0.0,0.0,-999,-99.99,,,-99.99,,2013-03-26 10:20:00,
2013-03-26 03:25:00,49.5,-99.9,29.89,ENE,74,0.0,0.0,-999,-99.99,,,-99.99,,2013-03-26 10:25:00,
2013-03-26 03:30:00,49.5,-99.9,29.89,ENE,74,0.0,0.0,-999,-99.99,,,-99.99,,2013-03-26 10:30:00,
2013-03-26 03:35:00,49.7,-99.9,29.90,ENE,74,0.0,0.0,-999,-99.99,,,-99.99,,2013-03-26 10:35:00,
2013-03-26 03:40:00,49.7,-99.9,29.90,ENE,74,0.0,0.0,-999,-99.99,,,-99.99,,2013-03-26 10:40:00,
2013-03-26 03:45:00,49.6,-99.9,29.90,ENE,74,0.0,0.0,-999,-99.99,,,-99.99,,2013-03-26 10:45:00,
2013-03-26 03:50:00,49.5,-99.9,29.89,ENE,74,0.0,0.0,-999,-99.99,,,-99.99,,2013-03-26 10:50:00,
2013-03-26 03:55:00,49.5,-99.9,29.89,ENE,74,0.0,0.0,-999,-99.99,,,-99.99,,2013-03-26 10:55:00,
2013-03-26 04:00:00,49.4,-99.9,29.89,ENE,74,0.0,0.0,-999,-99.99,,,-99.99,,2013-03-26 11:00:00,
2013-03-26 04:05:00,49.3,-99.9,29.89,ENE,74,0.0,0.0,-999,-99.99,,,-99.99,,2013-03-26 11:05:00,
2013-03-26 04:10:00,49.4,-99.9,29.89,ENE,74,0.0,0.0,-999,-99.99,,,-99.99,,2013-03-26 11:10:00,
2013-03-26 04:15:00,49.3,-99.9,29.89,ENE,74,0.0,0.0,-999,-99.99,,,-99.99,,2013-03-26 11:15:00,
2013-03-26 04:20:00,49.1,-99.9,29.89,ENE,74,0.0,0.0,-999,-99.99,,,-99.99,,2013-03-26 11:20:00,
2013-03-26 04:25:00,49.1,-99.9,29.89,ENE,74,0.0,0.0,-999,-99.99,,,-99.99,,2013-03-26 11:25:00,
2013-03-26 04:30:00,49.3,-99.9,29.89,ENE,74,0.0,0.0,-999,-99.99,,,-99.99,,2013-03-26 11:30:00,
2013-03-26 04:35:00,49.2,-99.9,29.89,ENE,74,0.0,0.0,-999,-99.99,,,-99.99,,2013-03-26 11:35:00,
2013-03-26 04:40:00,49.2,-99.9,29.89,ENE,74,0.0,0.0,-999,-99.99,,,-99.99,,2013-03-26 11:40:00,
2013-03-26 04:45:00,49.0,-99.9,29.89,East,88,0.0,0.0,-999,-99.99,,,-99.99,,2013-03-26 11:45:00,
2013-03-26 04:50:00,49.0,-99.9,29.89,East,88,0.0,0.0,-999,-99.99,,,-99.99,,2013-03-26 11:50:00,
2013-03-26 04:55:00,49.1,-99.9,29.89,East,88,0.0,0.0,-999,-99.99,,,-99.99,,2013-03-26 11:55:00,
2013-03-26 05:00:00,48.9,-99.9,29.89,East,88,0.0,0.0,-999,-99.99,,,-99.99,,2013-03-26 12:00:00,
2013-03-26 05:05:00,49.0,-99.9,29.89,East,88,0.0,0.0,-999,-99.99,,,-99.99,,2013-03-26 12:05:00,
2013-03-26 05:10:00,49.0,-99.9,29.89,East,101,0.0,0.0,-999,-99.99,,,-99.99,,2013-03-26 12:10:00,
2013-03-26 05:15:00,49.0,-99.9,29.89,ESE,103,0.0,6.3,-999,-99.99,,,-99.99,,2013-03-26 12:15:00,
2013-03-26 05:20:00,49.0,-99.9,29.89,ESE,107,0.0,14.8,-999,-99.99,,,-99.99,,2013-03-26 12:20:00,
2013-03-26 05:25:00,48.9,-99.9,29.89,ESE,107,0.0,0.0,-999,-99.99,,,-99.99,,2013-03-26 12:25:00,
2013-03-26 05:30:00,48.9,-99.9,29.89,ESE,107,0.0,0.0,-999,-99.99,,,-99.99,,2013-03-26 12:30:00,
2013-03-26 05:40:00,49.0,-99.9,29.89,ESE,107,0.0,0.0,-999,-99.99,,,-99.99,,2013-03-26 12:40:00,
2013-03-26 05:45:00,48.8,-99.9,29.89,ESE,107,0.0,0.0,-999,-99.99,,,-99.99,,2013-03-26 12:45:00,
2013-03-26 05:50:00,49.0,-99.9,29.89,East,87,0.0,0.0,-999,-99.99,,,-99.99,,2013-03-26 12:50:00,
2013-03-26 06:00:00,49.1,-99.9,29.89,East,87,0.0,0.0,-999,-99.99,,,-99.99,,2013-03-26 13:00:00,
2013-03-26 06:05:00,49.0,-99.9,29.89,East,87,0.0,0.0,-999,-99.99,,,-99.99,,2013-03-26 13:05:00,
2013-03-26 06:10:00,48.9,-99.9,29.89,SE,142,0.0,11.6,-999,-99.99,,,-99.99,,2013-03-26 13:10:00,
2013-03-26 06:15:00,48.9,-99.9,29.89,SE,142,0.0,0.0,-999,-99.99,,,-99.99,,2013-03-26 13:15:00,
2013-03-26 06:20:00,49.0,-99.9,29.89,SE,142,0.0,0.0,-999,-99.99,,,-99.99,,2013-03-26 13:20:00,
2013-03-26 06:25:00,48.9,-99.9,29.89,SE,142,0.0,0.0,-999,-99.99,,,-99.99,,2013-03-26 13:25:00,
2013-03-26 06:30:00,49.0,-99.9,29.89,SE,142,0.0,0.0,-999,-99.99,,,-99.99,,2013-03-26 13:30:00,
2013-03-26 06:35:00,48.8,-99.9,29.89,SE,142,0.0,0.0,-999,-99.99,,,-99.99,,2013-03-26 13:35:00,
2013-03-26 06:40:00,48.8,-99.9,29.89,SE,142,0.0,0.0,-999,-99.99,,,-99.99,,2013-03-26 13:40:00,
2013-03-26 06:45:00,48.6,-99.9,29.89,SE,131,0.0,0.0,-999,-99.99,,,-99.99,,2013-03-26 13:45:00,
2013-03-26 06:50:00,48.7,-99.9,29.89,ESE,117,0.0,0.0,-999,-99.99,,,-99.99,,2013-03-26 13:50:00,
2013-03-26 07:00:00,48.8,-99.9,29.90,ESE,117,0.0,0.0,-999,-99.99,,,-99.99,,2013-03-26 14:00:00,
2013-03-26 07:05:00,48.7,-99.9,29.90,ESE,117,0.0,0.0,-999,-99.99,,,-99.99,,2013-03-26 14:05:00,
2013-03-26 07:10:00,48.6,-99.9,29.90,ESE,117,0.0,0.0,-999,-99.99,,,-99.99,,2013-03-26 14:10:00,
2013-03-26 07:15:00,48.8,-99.9,29.90,ESE,117,0.0,0.0,-999,-99.99,,,-99.99,,2013-03-26 14:15:00,
2013-03-26 07:20:00,48.8,-99.9,29.91,ESE,117,0.0,0.0,-999,-99.99,,,-99.99,,2013-03-26 14:20:00,
2013-03-26 07:25:00,48.7,-99.9,29.91,ESE,117,0.0,0.0,-999,-99.99,,,-99.99,,2013-03-26 14:25:00,
2013-03-26 07:30:00,48.6,-99.9,29.91,ESE,117,0.0,0.0,-999,-99.99,,,-99.99,,2013-03-26 14:30:00,
2013-03-26 07:35:00,48.6,-99.9,29.91,ESE,117,0.0,0.0,-999,-99.99,,,-99.99,,2013-03-26 14:35:00,
2013-03-26 07:40:00,48.8,-99.9,29.91,ESE,117,0.0,0.0,-999,-99.99,,,-99.99,,2013-03-26 14:40:00,
2013-03-26 07:50:00,48.6,-99.9,29.91,ESE,117,0.0,0.0,-999,-99.99,,,-99.99,,2013-03-26 14:50:00,
2013-03-26 07:55:00,48.6,-99.9,29.91,ESE,117,0.0,0.0,-999,-99.99,,,-99.99,,2013-03-26 14:55:00,
2013-03-26 08:00:00,48.7,-99.9,29.91,ESE,117,0.0,0.0,-999,-99.99,,,-99.99,,2013-03-26 15:00:00,
2013-03-26 08:05:00,48.8,-99.9,29.91,ESE,117,0.0,0.0,-999,-99.99,,,-99.99,,2013-03-26 15:05:00,
2013-03-26 08:10:00,48.9,-99.9,29.91,ESE,117,0.0,0.0,-999,-99.99,,,-99.99,,2013-03-26 15:10:00,
2013-03-26 08:20:00,48.5,-99.9,29.91,ESE,117,0.0,0.0,-999,-99.99,,,-99.99,,2013-03-26 15:20:00,
2013-03-26 08:30:00,48.6,-99.9,29.91,ESE,117,0.0,0.0,-999,-99.99,,,-99.99,,2013-03-26 15:30:00,
2013-03-26 08:40:00,48.8,-99.9,29.91,ESE,117,0.0,0.0,-999,-99.99,,,-99.99,,2013-03-26 15:40:00,
2013-03-26 08:50:00,49.0,-99.9,29.91,ESE,117,0.0,0.0,-999,-99.99,,,-99.99,,2013-03-26 15:50:00,
2013-03-26 09:00:00,49.2,-99.9,29.92,ESE,117,0.0,0.0,-999,-99.99,,,-99.99,,2013-03-26 16:00:00,
2013-03-26 09:10:00,49.3,-99.9,29.92,ESE,117,0.0,0.0,-999,-99.99,,,-99.99,,2013-03-26 16:10:00,
2013-03-26 09:15:00,49.3,-99.9,29.92,ESE,117,0.0,0.0,-999,-99.99,,,-99.99,,2013-03-26 16:15:00,
2013-03-26 09:20:00,49.4,-99.9,29.92,ESE,117,0.0,0.0,-999,-99.99,,,-99.99,,2013-03-26 16:20:00,
2013-03-26 09:30:00,49.6,-99.9,29.92,ESE,117,0.0,0.0,-999,-99.99,,,-99.99,,2013-03-26 16:30:00,
2013-03-26 09:40:00,49.7,-99.9,29.92,ESE,117,0.0,0.0,-999,-99.99,,,-99.99,,2013-03-26 16:40:00,
2013-03-26 09:50:00,50.0,-99.9,29.93,ESE,117,0.0,0.0,-999,-99.99,,,-99.99,,2013-03-26 16:50:00,
2013-03-26 10:00:00,50.2,-99.9,29.93,ESE,117,0.0,0.0,-999,-99.99,,,-99.99,,2013-03-26 17:00:00,
2013-03-26 10:10:00,50.4,-99.9,29.93,ESE,117,0.0,0.0,-999,-99.99,,,-99.99,,2013-03-26 17:10:00,
2013-03-26 10:20:00,50.7,-99.9,29.93,ESE,117,0.0,0.0,-999,-99.99,,,-99.99,,2013-03-26 17:20:00,
2013-03-26 10:30:00,51.0,-99.9,29.93,ESE,117,0.0,0.0,-999,-99.99,,,-99.99,,2013-03-26 17:30:00,
2013-03-26 10:40:00,51.2,-99.9,29.93,ESE,117,0.0,0.0,-999,-99.99,,,-99.99,,2013-03-26 17:40:00,
2013-03-26 10:50:00,51.3,-99.9,29.93,ESE,117,0.0,0.0,-999,-99.99,,,-99.99,,2013-03-26 17:50:00,
2013-03-26 11:00:00,51.8,-99.9,29.93,ESE,117,0.0,0.0,-999,-99.99,,,-99.99,,2013-03-26 18:00:00,
2013-03-26 11:10:00,52.0,-99.9,29.93,ESE,117,0.0,0.0,-999,-99.99,,,-99.99,,2013-03-26 18:10:00,
2013-03-26 11:20:00,52.3,-99.9,29.93,ESE,117,0.0,0.0,-999,-99.99,,,-99.99,,2013-03-26 18:20:00,
2013-03-26 11:30:00,52.7,-99.9,29.93,ESE,117,0.0,0.0,-999,-99.99,,,-99.99,,2013-03-26 18:30:00,
2013-03-26 11:35:00,52.8,-99.9,29.93,ESE,117,3.9,3.9,-999,-99.99,,,-99.99,,2013-03-26 18:35:00,
2013-03-26 11:40:00,52.9,-99.9,29.93,ESE,117,0.0,0.0,-999,-99.99,,,-99.99,,2013-03-26 18:40:00,
2013-03-26 11:50:00,53.2,-99.9,29.93,ESE,117,0.0,0.0,-999,-99.99,,,-99.99,,2013-03-26 18:50:00,
2013-03-26 11:55:00,53.4,-99.9,29.93,ESE,117,0.0,0.0,-999,-99.99,,,-99.99,,2013-03-26 18:55:00,
2013-03-26 12:00:00,53.7,-99.9,29.93,WSW,237,0.0,0.0,-999,-99.99,,,-99.99,,2013-03-26 19:00:00,
2013-03-26 12:10:00,54.1,-99.9,29.93,WSW,241,0.0,0.0,-999,-99.99,,,-99.99,,2013-03-26 19:10:00,
2013-03-26 12:15:00,54.1,-99.9,29.93,WSW,241,0.0,0.0,-999,-99.99,,,-99.99,,2013-03-26 19:15:00,
2013-03-26 12:20:00,54.5,-99.9,29.93,South,180,0.0,0.0,-999,-99.99,,,-99.99,,2013-03-26 19:20:00,
2013-03-26 12:25:00,54.9,-99.9,29.93,WSW,239,0.0,0.0,-999,-99.99,,,-99.99,,2013-03-26 19:25:00,
2013-03-26 12:30:00,55.2,-99.9,29.93,WSW,239,0.0,0.0,-999,-99.99,,,-99.99,,2013-03-26 19:30:00,
2013-03-26 12:35:00,55.4,-99.9,29.93,WSW,239,0.0,0.0,-999,-99.99,,,-99.99,,2013-03-26 19:35:00,
2013-03-26 12:40:00,55.8,-99.9,29.93,WSW,239,0.0,0.0,-999,-99.99,,,-99.99,,2013-03-26 19:40:00,
2013-03-26 12:50:00,55.4,-99.9,29.92,SW,232,0.0,0.0,-999,-99.99,,,-99.99,,2013-03-26 19:50:00,
2013-03-26 12:55:00,55.6,-99.9,29.92,SW,232,0.0,0.0,-999,-99.99,,,-99.99,,2013-03-26 19:55:00,
2013-03-26 13:00:00,55.9,-99.9,29.92,WSW,247,0.0,10.8,-999,-99.99,,,-99.99,,2013-03-26 20:00:00,
2013-03-26 13:05:00,56.0,-99.9,29.92,West,278,0.0,0.0,-999,-99.99,,,-99.99,,2013-03-26 20:05:00,
2013-03-26 13:10:00,56.3,-99.9,29.92,SW,218,0.0,0.0,-999,-99.99,,,-99.99,,2013-03-26 20:10:00,
2013-03-26 13:20:00,56.6,-99.9,29.92,SW,230,0.0,0.0,-999,-99.99,,,-99.99,,2013-03-26 20:20:00,
2013-03-26 13:25:00,56.4,-99.9,29.92,SW,230,0.0,0.0,-999,-99.99,,,-99.99,,2013-03-26 20:25:00,
2013-03-26 13:30:00,56.8,-99.9,29.92,SW,230,0.0,0.0,-999,-99.99,,,-99.99,,2013-03-26 20:30:00,
2013-03-26 13:35:00,57.1,-99.9,29.92,WSW,258,0.0,11.3,-999,-99.99,,,-99.99,,2013-03-26 20:35:00,
2013-03-26 13:40:00,57.3,-99.9,29.91,WSW,254,8.9,11.7,-999,-99.99,,,-99.99,,2013-03-26 20:40:00,
2013-03-26 13:50:00,57.4,-99.9,29.91,West,265,15.1,15.1,-999,-99.99,,,-99.99,,2013-03-26 20:50:00,
2013-03-26 13:55:00,58.1,-99.9,29.91,West,261,0.0,7.7,-999,-99.99,,,-99.99,,2013-03-26 20:55:00,
2013-03-26 14:00:00,58.3,-99.9,29.91,WSW,256,0.0,0.0,-999,-99.99,,,-99.99,,2013-03-26 21:00:00,
2013-03-26 14:05:00,58.5,-99.9,29.91,WSW,256,0.0,0.0,-999,-99.99,,,-99.99,,2013-03-26 21:05:00,
2013-03-26 14:10:00,58.2,-99.9,29.91,WSW,256,0.0,0.0,-999,-99.99,,,-99.99,,2013-03-26 21:10:00,
2013-03-26 14:15:00,58.3,-99.9,29.91,WSW,241,0.0,7.9,-999,-99.99,,,-99.99,,2013-03-26 21:15:00,
2013-03-26 14:20:00,58.7,-99.9,29.91,WSW,242,0.0,9.0,-999,-99.99,,,-99.99,,2013-03-26 21:20:00,
2013-03-26 14:25:00,58.9,-99.9,29.91,West,265,12.6,13.4,-999,-99.99,,,-99.99,,2013-03-26 21:25:00,
2013-03-26 14:30:00,58.8,-99.9,29.91,West,265,8.9,8.9,-999,-99.99,,,-99.99,,2013-03-26 21:30:00,
2013-03-26 14:40:00,59.2,-99.9,29.91,West,259,8.5,16.3,-999,-99.99,,,-99.99,,2013-03-26 21:40:00,
2013-03-26 14:45:00,59.2,-99.9,29.90,WNW,287,8.2,8.2,-999,-99.99,,,-99.99,,2013-03-26 21:45:00,
2013-03-26 14:55:00,59.4,-99.9,29.90,WNW,292,0.0,0.0,-999,-99.99,,,-99.99,,2013-03-26 21:55:00,
2013-03-26 15:00:00,60.0,-99.9,29.90,WSW,239,8.9,17.7,-999,-99.99,,,-99.99,,2013-03-26 22:00:00,
2013-03-26 15:05:00,59.8,-99.9,29.90,WSW,251,0.0,0.0,-999,-99.99,,,-99.99,,2013-03-26 22:05:00,
2013-03-26 15:10:00,59.7,-99.9,29.90,SE,129,0.0,0.0,-999,-99.99,,,-99.99,,2013-03-26 22:10:00,
2013-03-26 15:15:00,60.2,-99.9,29.90,SE,129,0.0,0.0,-999,-99.99,,,-99.99,,2013-03-26 22:15:00,
2013-03-26 15:20:00,60.1,-99.9,29.90,SE,129,0.0,0.0,-999,-99.99,,,-99.99,,2013-03-26 22:20:00,
2013-03-26 15:25:00,60.5,-99.9,29.90,SE,129,0.0,0.0,-999,-99.99,,,-99.99,,2013-03-26 22:25:00,
2013-03-26 15:30:00,60.6,-99.9,29.90,SE,129,0.0,0.0,-999,-99.99,,,-99.99,,2013-03-26 22:30:00,
2013-03-26 15:40:00,61.0,-99.9,29.90,SE,129,0.0,0.0,-999,-99.99,,,-99.99,,2013-03-26 22:40:00,
2013-03-26 15:45:00,61.4,-99.9,29.90,SE,129,0.0,0.0,-999,-99.99,,,-99.99,,2013-03-26 22:45:00,
2013-03-26 15:50:00,61.3,-99.9,29.90,SE,129,0.0,0.0,-999,-99.99,,,-99.99,,2013-03-26 22:50:00,
2013-03-26 16:00:00,61.7,-99.9,29.89,SE,129,0.0,0.0,-999,-99.99,,,-99.99,,2013-03-26 23:00:00,
2013-03-26 16:10:00,61.9,-99.9,29.89,South,175,0.0,0.0,-999,-99.99,,,-99.99,,2013-03-26 23:10:00,
2013-03-26 16:15:00,61.9,-99.9,29.89,WNW,290,8.5,8.9,-999,-99.99,,,-99.99,,2013-03-26 23:15:00,
2013-03-26 16:20:00,62.3,-99.9,29.89,West,276,0.0,0.0,-999,-99.99,,,-99.99,,2013-03-26 23:20:00,
2013-03-26 16:25:00,62.4,-99.9,29.89,SW,232,0.0,8.5,-999,-99.99,,,-99.99,,2013-03-26 23:25:00,
2013-03-26 16:30:00,62.3,-99.9,29.89,West,262,0.0,8.0,-999,-99.99,,,-99.99,,2013-03-26 23:30:00,
2013-03-26 16:35:00,62.5,-99.9,29.89,WNW,287,7.2,7.2,-999,-99.99,,,-99.99,,2013-03-26 23:35:00,
2013-03-26 16:40:00,62.7,-99.9,29.89,WNW,287,0.0,0.0,-999,-99.99,,,-99.99,,2013-03-26 23:40:00,
2013-03-26 16:50:00,63.0,-99.9,29.89,WNW,287,8.5,8.5,-999,-99.99,,,-99.99,,2013-03-26 23:50:00,
2013-03-26 16:55:00,62.7,-99.9,29.89,SW,231,0.0,0.0,-999,-99.99,,,-99.99,,2013-03-26 23:55:00,
2013-03-26 17:00:00,62.7,-99.9,29.89,SW,231,0.0,0.0,-999,-99.99,,,-99.99,,2013-03-27 00:00:00,
2013-03-26 17:05:00,62.8,-99.9,29.89,SW,231,0.0,0.0,-999,-99.99,,,-99.99,,2013-03-27 00:05:00,
2013-03-26 17:10:00,62.9,-99.9,29.89,SW,231,0.0,0.0,-999,-99.99,,,-99.99,,2013-03-27 00:10:00,
2013-03-26 17:20:00,62.8,-99.9,29.89,WNW,295,0.0,0.0,-999,-99.99,,,-99.99,,2013-03-27 00:20:00,
2013-03-26 17:25:00,62.9,-99.9,29.89,WSW,241,0.0,0.0,-999,-99.99,,,-99.99,,2013-03-27 00:25:00,
2013-03-26 17:30:00,62.8,-99.9,29.89,WSW,249,8.9,0.0,-999,-99.99,,,-99.99,,2013-03-27 00:30:00,
2013-03-26 17:35:00,63.0,-99.9,29.89,SW,227,0.0,0.0,-999,-99.99,,,-99.99,,2013-03-27 00:35:00,
2013-03-26 17:40:00,63.2,-99.9,29.89,WNW,282,0.0,23.0,-999,-99.99,,,-99.99,,2013-03-27 00:40:00,
2013-03-26 17:50:00,63.0,-99.9,29.88,West,262,0.0,0.0,-999,-99.99,,,-99.99,,2013-03-27 00:50:00,
2013-03-26 18:00:00,63.2,-99.9,29.88,WSW,248,0.0,0.0,-999,-99.99,,,-99.99,,2013-03-27 01:00:00,
2013-03-26 18:10:00,63.3,-99.9,29.89,WSW,248,0.0,0.0,-999,-99.99,,,-99.99,,2013-03-27 01:10:00,
2013-03-26 18:15:00,63.1,-99.9,29.89,WSW,248,0.0,0.0,-999,-99.99,,,-99.99,,2013-03-27 01:15:00,
2013-03-26 18:20:00,63.0,-99.9,29.89,WSW,248,0.0,0.0,-999,-99.99,,,-99.99,,2013-03-27 01:20:00,
2013-03-26 18:30:00,63.1,-99.9,29.89,WSW,241,0.0,0.0,-999,-99.99,,,-99.99,,2013-03-27 01:30:00,
2013-03-26 18:35:00,63.3,-99.9,29.89,WSW,241,0.0,0.0,-999,-99.99,,,-99.99,,2013-03-27 01:35:00,
2013-03-26 18:40:00,63.3,-99.9,29.90,WSW,241,0.0,0.0,-999,-99.99,,,-99.99,,2013-03-27 01:40:00,
2013-03-26 18:50:00,62.6,-99.9,29.90,WSW,241,0.0,0.0,-999,-99.99,,,-99.99,,2013-03-27 01:50:00,
2013-03-26 18:55:00,62.0,-99.9,29.90,WSW,241,0.0,0.0,-999,-99.99,,,-99.99,,2013-03-27 01:55:00,
2013-03-26 19:00:00,61.7,-99.9,29.90,WSW,241,0.0,0.0,-999,-99.99,,,-99.99,,2013-03-27 02:00:00,
2013-03-26 19:10:00,61.3,-99.9,29.90,WSW,241,0.0,0.0,-999,-99.99,,,-99.99,,2013-03-27 02:10:00,
2013-03-26 19:15:00,61.3,-99.9,29.90,WSW,241,0.0,0.0,-999,-99.99,,,-99.99,,2013-03-27 02:15:00,
2013-03-26 19:20:00,61.0,-99.9,29.90,WSW,241,0.0,0.0,-999,-99.99,,,-99.99,,2013-03-27 02:20:00,
2013-03-26 19:30:00,60.6,-99.9,29.90,WSW,241,0.0,0.0,-999,-99.99,,,-99.99,,2013-03-27 02:30:00,
2013-03-26 19:40:00,60.5,-99.9,29.90,WSW,241,0.0,0.0,-999,-99.99,,,-99.99,,2013-03-27 02:40:00,
2013-03-26 19:50:00,59.8,-99.9,29.90,WSW,241,0.0,0.0,-999,-99.99,,,-99.99,,2013-03-27 02:50:00,
2013-03-26 20:00:00,59.7,-99.9,29.90,WSW,241,0.0,0.0,-999,-99.99,,,-99.99,,2013-03-27 03:00:00,
2013-03-26 20:10:00,59.5,-99.9,29.90,WSW,241,0.0,0.0,-999,-99.99,,,-99.99,,2013-03-27 03:10:00,
2013-03-26 20:20:00,59.4,-99.9,29.91,WSW,241,0.0,0.0,-999,-99.99,,,-99.99,,2013-03-27 03:20:00,
2013-03-26 20:30:00,59.4,-99.9,29.90,WSW,241,0.0,0.0,-999,-99.99,,,-99.99,,2013-03-27 03:30:00,
2013-03-26 20:40:00,58.8,-99.9,29.91,WSW,241,0.0,0.0,-999,-99.99,,,-99.99,,2013-03-27 03:40:00,
2013-03-26 20:50:00,59.1,-99.9,29.91,WSW,241,0.0,0.0,-999,-99.99,,,-99.99,,2013-03-27 03:50:00,
2013-03-26 21:00:00,59.1,-99.9,29.91,WSW,241,0.0,0.0,-999,-99.99,,,-99.99,,2013-03-27 04:00:00,
2013-03-26 21:05:00,59.1,-99.9,29.91,WSW,241,0.0,0.0,-999,-99.99,,,-99.99,,2013-03-27 04:05:00,
2013-03-26 21:10:00,58.8,-99.9,29.90,WSW,241,0.0,0.0,-999,-99.99,,,-99.99,,2013-03-27 04:10:00,
2013-03-26 21:20:00,58.0,-99.9,29.91,WSW,241,0.0,0.0,-999,-99.99,,,-99.99,,2013-03-27 04:20:00,
2013-03-26 21:30:00,58.1,-99.9,29.91,WSW,241,0.0,0.0,-999,-99.99,,,-99.99,,2013-03-27 04:30:00,
2013-03-26 21:40:00,57.9,-99.9,29.91,WSW,241,0.0,0.0,-999,-99.99,,,-99.99,,2013-03-27 04:40:00,
2013-03-26 21:45:00,57.7,-99.9,29.91,WSW,241,0.0,0.0,-999,-99.99,,,-99.99,,2013-03-27 04:45:00,
2013-03-26 21:50:00,57.3,-99.9,29.91,WSW,241,0.0,0.0,-999,-99.99,,,-99.99,,2013-03-27 04:50:00,
2013-03-26 22:00:00,57.0,-99.9,29.92,WSW,241,0.0,0.0,-999,-99.99,,,-99.99,,2013-03-27 05:00:00,
2013-03-26 22:10:00,56.4,-99.9,29.92,WSW,241,0.0,0.0,-999,-99.99,,,-99.99,,2013-03-27 05:10:00,
2013-03-26 22:20:00,56.5,-99.9,29.92,WSW,241,0.0,0.0,-999,-99.99,,,-99.99,,2013-03-27 05:20:00,
2013-03-26 22:30:00,56.8,-99.9,29.92,WSW,241,0.0,0.0,-999,-99.99,,,-99.99,,2013-03-27 05:30:00,
2013-03-26 22:40:00,56.1,-99.9,29.91,WSW,241,0.0,0.0,-999,-99.99,,,-99.99,,2013-03-27 05:40:00,
2013-03-26 22:50:00,55.7,-99.9,29.91,WSW,241,0.0,0.0,-999,-99.99,,,-99.99,,2013-03-27 05:50:00,
2013-03-26 23:00:00,56.1,-99.9,29.91,WSW,241,0.0,0.0,-999,-99.99,,,-99.99,,2013-03-27 06:00:00,
2013-03-26 23:10:00,56.3,-99.9,29.91,WSW,241,0.0,0.0,-999,-99.99,,,-99.99,,2013-03-27 06:10:00,
2013-03-26 23:20:00,55.9,-99.9,29.91,WSW,241,0.0,0.0,-999,-99.99,,,-99.99,,2013-03-27 06:20:00,
2013-03-26 23:30:00,54.7,-99.9,29.92,WSW,241,0.0,0.0,-999,-99.99,,,-99.99,,2013-03-27 06:30:00,
2013-03-26 23:35:00,55.0,-99.9,29.92,WSW,241,0.0,0.0,-999,-99.99,,,-99.99,,2013-03-27 06:35:00,
2013-03-26 23:40:00,55.4,-99.9,29.92,WSW,241,0.0,0.0,-999,-99.99,,,-99.99,,2013-03-27 06:40:00,
2013-03-26 23:45:00,55.0,-99.9,29.91,WSW,241,0.0,0.0,-999,-99.99,,,-99.99,,2013-03-27 06:45:00,
2013-03-26 23:50:00,55.4,-99.9,29.91,WSW,241,0.0,0.0,-999,-99.99,,,-99.99,,2013-03-27 06:50:00,
2013-03-26 23:55:00,55.0,-99.9,29.91,WSW,241,0.0,0.0,-999,-99.99,,,-99.99,,2013-03-27 06:55:00,